Hulett, WY

9:23 PM MST on December 08, 2019 (GMT -0700)
Hulett

Weather History for KW43 - June, 2019

Change the Weather History Date:

Friday, June 7, 2019

  Actual Average (WUND) Record (WUND)
Temperature  
Mean Temperature 66 °F -  
Max Temperature 78 °F - - (-1)
Min Temperature 53 °F - - (-1)
Growing Degree Days 16 (Base 50)    
Moisture  
Dew Point 50 °F    
Average Humidity 53    
Maximum Humidity 100    
Minimum Humidity 33    
Precipitation  
Precipitation 0.81 in - - ()
Sea Level Pressure  
Sea Level Pressure 29.76 in    
Wind  
Wind Speed 16 mph (SSE)    
Max Wind Speed 28 mph    
Max Gust Speed 43 mph    
Visibility 10 miles    
Events Rain , Thunderstorm    
Averages and records for this station are not official NWS values.
T = Trace of Precipitation, MM = Missing Value Source: NWS Daily Summary

Daily Weather History Graph

Daily Weather History Graph

Search for Another Location

Airport or City:

Astronomy

Jun. 07, 2019 Rise Set
Actual Time 5:13 AM MDT 8:41 PM MDT
Civil Twilight 4:37 AM MDT 9:17 PM MDT
Nautical Twilight 3:49 AM MDT 10:05 PM MDT
Astronomical Twilight 2:48 AM MDT 11:07 PM MDT
Moon 9:36 AM MDT (6/7) No Moon Set
Length of Visible Light 16h 40m
Length of Day
15h 27m
Waxing Crescent, 23% of the Moon is Illuminated
Jun 7
Waxing Crescent
Jun 10
First Quarter
Jun 17
Full
Jun 25
Last Quarter
Jul 2
New

Hourly Weather History & Observations

Time (MDT) Temp. Dew Point Humidity Pressure Visibility Wind Dir Wind Speed Gust Speed Precip Events Conditions
12:15 AM 73.4 °F 42.8 °F 33% 29.77 in 10.0 mi South 25.3 mph 32.2 mph N/A   Clear
12:35 AM 73.4 °F 42.8 °F 33% 29.76 in 10.0 mi South 20.7 mph 33.4 mph N/A   Clear
12:55 AM 73.4 °F 42.8 °F 33% 29.75 in 10.0 mi South 21.9 mph 31.1 mph N/A   Clear
1:15 AM 73.4 °F 42.8 °F 33% 29.75 in 10.0 mi South 21.9 mph 34.5 mph N/A   Clear
1:35 AM 71.6 °F 42.8 °F 35% 29.74 in 10.0 mi South 23.0 mph 29.9 mph N/A   Clear
1:55 AM 71.6 °F 42.8 °F 35% 29.74 in 10.0 mi South 18.4 mph 28.8 mph N/A   Clear
2:15 AM 71.6 °F 42.8 °F 35% 29.74 in 10.0 mi South 27.6 mph 32.2 mph N/A   Clear
2:35 AM 71.6 °F 44.6 °F 38% 29.74 in 10.0 mi South 20.7 mph 28.8 mph N/A   Clear
2:55 AM 69.8 °F 44.6 °F 40% 29.74 in 10.0 mi South 15.0 mph - N/A   Clear
3:15 AM 69.8 °F 44.6 °F 40% 29.73 in 10.0 mi South 17.3 mph 25.3 mph N/A   Clear
3:35 AM 69.8 °F 44.6 °F 40% 29.73 in 10.0 mi South 17.3 mph 21.9 mph N/A   Clear
3:55 AM 69.8 °F 44.6 °F 40% 29.73 in 10.0 mi South 18.4 mph 24.2 mph N/A   Clear
4:15 AM 68.0 °F 44.6 °F 43% 29.73 in 10.0 mi SSW 12.7 mph 21.9 mph N/A   Clear
4:35 AM 68.0 °F 44.6 °F 43% 29.73 in 10.0 mi South 13.8 mph - N/A   Clear
4:55 AM 66.2 °F 44.6 °F 46% 29.74 in 10.0 mi SSW 11.5 mph - N/A   Clear
5:15 AM 68.0 °F 44.6 °F 43% 29.75 in 10.0 mi South 16.1 mph - N/A   Clear
5:35 AM 68.0 °F 44.6 °F 43% 29.76 in 10.0 mi SSW 17.3 mph 23.0 mph N/A   Clear
5:55 AM 68.0 °F 44.6 °F 43% 29.75 in 10.0 mi South 17.3 mph 24.2 mph N/A   Clear
6:15 AM 68.0 °F 44.6 °F 43% 29.75 in 10.0 mi South 13.8 mph 19.6 mph N/A   Clear
6:35 AM 66.2 °F 44.6 °F 46% 29.75 in 10.0 mi SSW 16.1 mph 20.7 mph N/A   Clear
6:55 AM 68.0 °F 44.6 °F 43% 29.76 in 10.0 mi South 15.0 mph 20.7 mph N/A   Clear
7:15 AM 68.0 °F 46.4 °F 46% 29.76 in 10.0 mi SSW 16.1 mph - N/A   Clear
7:35 AM 69.8 °F 46.4 °F 43% 29.76 in 10.0 mi SSW 16.1 mph 26.5 mph N/A   Clear
7:55 AM 69.8 °F 46.4 °F 43% 29.77 in 10.0 mi SW 13.8 mph 25.3 mph N/A   Clear
8:15 AM 69.8 °F 46.4 °F 43% 29.78 in 10.0 mi SW 13.8 mph 24.2 mph N/A   Clear
8:35 AM 71.6 °F 48.2 °F 43% 29.78 in 10.0 mi SSW 18.4 mph 23.0 mph N/A   Clear
8:55 AM 71.6 °F 50.0 °F 46% 29.78 in 10.0 mi SSW 11.5 mph 18.4 mph N/A   Clear
9:15 AM 71.6 °F 50.0 °F 46% 29.79 in 10.0 mi SSW 15.0 mph 20.7 mph N/A   Clear
9:35 AM 73.4 °F 50.0 °F 44% 29.79 in 10.0 mi SW 10.4 mph 17.3 mph N/A   Clear
9:55 AM 75.2 °F 50.0 °F 41% 29.78 in 10.0 mi SSW 11.5 mph - N/A   Clear
10:15 AM 75.2 °F 50.0 °F 41% 29.79 in 10.0 mi SW 10.4 mph 18.4 mph N/A   Clear
10:35 AM 77.0 °F 50.0 °F 39% 29.78 in 10.0 mi SSW 8.1 mph - N/A   Clear
10:55 AM 77.0 °F 48.2 °F 36% 29.79 in 10.0 mi West 10.4 mph - N/A   Clear
11:15 AM 75.2 °F 46.4 °F 36% 29.80 in 10.0 mi West 9.2 mph - N/A   Clear
11:35 AM 77.0 °F 46.4 °F 34% 29.81 in 10.0 mi SW 5.8 mph - N/A   Clear
11:55 AM 77.0 °F 46.4 °F 34% 29.80 in 10.0 mi Calm Calm - N/A   Clear
12:15 PM 77.0 °F 51.8 °F 41% 29.80 in 10.0 mi North 8.1 mph - N/A   Clear
12:35 PM 77.0 °F 50.0 °F 39% 29.80 in 10.0 mi East 5.8 mph - N/A   Clear
12:55 PM 77.0 °F 51.8 °F 41% 29.79 in 10.0 mi NW 5.8 mph - N/A   Clear
1:15 PM 77.0 °F 53.6 °F 44% 29.78 in 10.0 mi NNW 6.9 mph - N/A   Clear
1:35 PM 77.0 °F 55.4 °F 47% 29.78 in 10.0 mi NNE 9.2 mph - N/A   Clear
1:55 PM 78.8 °F 55.4 °F 44% 29.77 in 10.0 mi NE 11.5 mph - N/A   Clear
2:15 PM 77.0 °F 57.2 °F 50% 29.77 in 10.0 mi ENE 12.7 mph - N/A   Clear
2:35 PM 77.0 °F 55.4 °F 47% 29.77 in 10.0 mi ENE 9.2 mph 17.3 mph N/A   Clear
2:55 PM 77.0 °F 57.2 °F 50% 29.77 in 10.0 mi NNE 8.1 mph - N/A   Clear
3:15 PM 77.0 °F 57.2 °F 50% 29.76 in 10.0 mi NE 10.4 mph 16.1 mph N/A   Scattered Clouds
3:35 PM 77.0 °F 57.2 °F 50% 29.75 in 10.0 mi NNE 13.8 mph 19.6 mph N/A   Scattered Clouds
3:55 PM 73.4 °F 55.4 °F 53% 29.73 in 10.0 mi NE 10.4 mph 18.4 mph N/A   Scattered Clouds
4:15 PM 73.4 °F 57.2 °F 57% 29.75 in 10.0 mi NE 10.4 mph 16.1 mph N/A Rain Light Rain
4:35 PM 77.0 °F 55.4 °F 47% 29.73 in 10.0 mi ENE 15.0 mph 20.7 mph N/A   Mostly Cloudy
4:55 PM 73.4 °F 55.4 °F 53% 29.73 in 10.0 mi ENE 11.5 mph 19.6 mph N/A   Scattered Clouds
5:15 PM 71.6 °F 53.6 °F 53% 29.74 in 10.0 mi ENE 8.1 mph - N/A   Mostly Cloudy
5:35 PM 71.6 °F 55.4 °F 57% 29.72 in 10.0 mi East 10.4 mph - N/A Thunderstorm Mostly Cloudy
5:55 PM 73.4 °F 59.0 °F 61% 29.71 in 10.0 mi ESE 16.1 mph 20.7 mph N/A Rain Light Rain
6:15 PM 77.0 °F 57.2 °F 50% 29.71 in 10.0 mi ESE 15.0 mph 21.9 mph N/A   Scattered Clouds
6:35 PM 71.6 °F 55.4 °F 57% 29.72 in 10.0 mi East 8.1 mph 17.3 mph N/A   Overcast
6:55 PM 71.6 °F 55.4 °F 57% 29.74 in 10.0 mi ENE 4.6 mph - N/A   Overcast
7:15 PM 69.8 °F 55.4 °F 60% 29.71 in 10.0 mi NNE 13.8 mph 17.3 mph N/A Rain , Thunderstorm Light Thunderstorms and Rain
7:35 PM 68.0 °F 57.2 °F 68% 29.74 in 10.0 mi WNW 11.5 mph 19.6 mph N/A Rain , Thunderstorm Light Thunderstorms and Rain
7:55 PM 60.8 °F 57.2 °F 88% 29.75 in 0.2 mi North 27.6 mph 42.6 mph 0.06 in Rain , Thunderstorm Heavy Thunderstorms and Rain
8:15 PM 59.0 °F 55.4 °F 88% 29.78 in 10.0 mi North 11.5 mph 21.9 mph 0.11 in Thunderstorm Mostly Cloudy
8:35 PM 59.0 °F 55.4 °F 88% 29.80 in 10.0 mi North 15.0 mph 20.7 mph 0.21 in   Mostly Cloudy
8:55 PM 55.4 °F 53.6 °F 94% 29.79 in 10.0 mi NE 8.1 mph 17.3 mph 0.32 in   Scattered Clouds
9:15 PM 55.4 °F 53.6 °F 94% 29.79 in 10.0 mi ENE 8.1 mph - 0.12 in   Mostly Cloudy
9:35 PM 55.4 °F 53.6 °F 94% 29.80 in 10.0 mi East 10.4 mph - 0.24 in   Mostly Cloudy
9:55 PM 55.4 °F 53.6 °F 94% 29.81 in 10.0 mi Calm Calm - 0.34 in   Scattered Clouds
10:15 PM 53.6 °F 53.6 °F 100% 29.81 in 10.0 mi ENE 4.6 mph - 0.08 in   Scattered Clouds
10:35 PM 53.6 °F 53.6 °F 100% 29.82 in 10.0 mi NNW 4.6 mph - 0.09 in   Clear
10:55 PM 53.6 °F 53.6 °F 100% 29.81 in 10.0 mi East 4.6 mph - 0.09 in   Clear
11:15 PM 53.6 °F 51.8 °F 94% 29.80 in 10.0 mi ENE 5.8 mph - N/A   Clear
11:35 PM 53.6 °F 51.8 °F 94% 29.81 in 10.0 mi East 4.6 mph - N/A   Clear
11:55 PM 53.6 °F 51.8 °F 94% 29.79 in 10.0 mi ENE 5.8 mph - N/A   Clear